Location: Observatoire
(46.1952°N, 5.3391°E)
Time: 06:36:26
(UTC+01:00)

A-11 Canister half - Pass Details

Date: 23 February 2026
Orbit: 1524 x 1683 km, 47.3° (Epoch: 13 March)

Event Time Altitude Azimuth Distance (km) Brightness Sun altitude
Rises 18:18:14 0° 269° (W) 4,716 13.8 -1.2°
Reaches altitude 10° 18:21:19 10° 270° (W) 3,719 12.9 -1.7°
Maximum altitude 18:30:43 84° 359° (N) 1,537 9.1 -3.3°
Drops below altitude 10° 18:40:03 10° 89° (E) 3,697 10.3 -4.9°
Enters shadow 18:41:25 - 89° (E) 4,141 10.6 -5.1°
Sets 18:43:06 0° 90° (E) 4,687 - -5.4°
